Temperature
18 18 18 18 18 18 18 18 18 18 18 18 18 18 18 18 18 18 18 18 18 18 18 18 17 17 17 17 17 17 17 17 17 17 17 17 17 16 16 16 16 16 16
18 18 18 18 18 18 18 18 18 18 18 18 18 18 18 18 18 18 18 18 18 18 18 18 17 17 17 17 17 17 17 17 17 17 17 17 16 16 16 16 16 16 16
18 18 18 18 18 18 18 18 18 18 18 18 18 18 18 18 18 18 18 18 18 18 18 18 18 17 17 17 17 17 17 17 17 17 17 17 17 16 16 16 16 16 16
18 18 18 18 18 18 18 18 18 18 18 18 18 18 18 18 18 18 18 18 18 18 18 18 18 18 17 17 17 17 17 17 17 17 17 17 17 17 16 16 16 16 16
18 18 18 18 18 18 18 18 18 18 18 18 18 18 18 18 18 18 18 18 18 18 18 18 18 18 18 17 17 17 17 17 17 17 17 17 17 17 16 16 16 16 16
18 18 18 18 18 18 18 18 18 18 18 18 18 18 18 18 18 18 18 18 18 18 18 18 18 18 18 17 17 17 17 17 17 17 17 17 17 17 16 16 16 16 16
18 18 18 18 18 18 18 18 18 18 18 17 18 18 18 18 18 18 18 18 18 18 18 18 18 18 18 18 17 17 17 17 17 17 17 17 17 17 16 16 16 16 16
18 18 18 18 18 18 18 18 18 18 18 17 17 17 18 18 18 19 18 18 18 18 18 18 18 18 18 18 17 17 17 17 17 17 17 17 17 17 16 16 16 16 16
18 18 18 18 18 18 18 18 18 18 18 18 18 17 17 18 18 18 18 18 18 18 18 18 18 18 18 18 18 18 17 17 17 17 17 17 17 17 16 16 16 16 16
18 18 18 18 18 18 18 18 18 18 18 18 18 18 17 17 17 18 18 18 18 18 18 18 18 18 18 18 18 18 17 17 17 17 17 17 17 17 17 17 16 16 16
18 18 18 18 18 18 18 18 18 18 18 18 18 18 17 17 17 17 18 18 18 18 18 18 18 18 18 18 18 18 18 17 17 17 17 17 17 17 17 17 16 16 16
19 18 18 18 18 18 18 18 18 18 18 18 18 18 17 17 17 17 17 18 18 18 18 18 18 18 18 18 18 18 18 17 17 17 17 17 17 17 17 16 16 16 16
19 19 18 18 18 18 18 18 18 18 18 18 18 18 17 17 17 17 17 17 17 18 18 18 18 18 18 18 18 18 17 17 17 17 17 17 17 17 16 16 16 16 16
19 19 19 19 18 18 18 18 18 18 18 18 18 18 17 17 17 17 17 17 17 17 17 17 18 18 17 17 17 17 17 17 17 17 17 17 16 16 16 16 16 16 16
19 19 19 18 18 18 18 18 18 18 18 18 18 17 17 17 17 17 17 17 17 17 17 17 17 17 17 17 17 17 17 17 17 17 17 17 16 16 16 16 16 16 15
19 19 19 18 18 18 18 18 18 18 18 18 17 17 17 17 17 17 17 17 17 16 16 17 17 17 17 17 17 17 17 17 17 17 16 16 16 16 16 16 15 15 15
19 19 18 18 18 18 18 18 18 18 17 17 17 17 17 17 17 17 17 17 17 16 16 17 17 17 17 17 17 17 17 16 16 16 16 16 16 16 16 15 15 15 15
19 18 18 18 18 18 18 18 18 18 17 17 17 17 17 17 17 17 17 17 17 16 16 16 16 16 16 16 16 16 16 16 16 16 16 16 16 16 16 15 15 15 15
19 18 18 18 18 18 18 18 18 18 17 17 17 17 17 17 17 17 17 17 17 16 16 16 16 16 16 16 16 16 16 16 16 16 16 15 15 15 15 15 15 15 15
18 18 18 18 18 18 18 18 17 17 17 17 17 17 17 17 17 17 16 16 16 16 16 16 16 16 16 16 16 16 16 16 16 15 15 15 15 15 15 15 15 15 14
18 18 18 18 18 17 18 17 17 17 17 17 17 17 17 16 16 16 16 16 16 16 16 16 16 15 15 15 15 16 15 15 15 15 15 15 15 15 15 15 15 14 14
18 17 17 17 17 17 17 17 17 17 17 17 17 17 16 16 16 16 16 16 16 15 15 15 15 15 15 15 15 15 15 15 15 15 15 15 15 15 15 14 14 14 14
17 17 17 17 17 17 17 16 16 16 16 16 16 16 16 16 16 16 16 15 15 15 15 15 15 15 15 15 15 15 15 14 14 14 14 14 14 14 14 14 14 14 14
17 17 17 16 16 16 16 16 16 16 16 16 15 15 15 15 15 15 15 15 15 15 15 15 15 15 15 14 14 14 14 14 14 14 14 14 14 14 14 14 14 13 13
16 16 16 16 16 16 16 16 16 15 15 15 15 15 14 14 14 14 14 14 14 14 14 14 14 14 14 14 14 14 13 13 13 14 13 13 13 13 13 13 13 13 13
16 16 16 16 16 16 16 15 15 15 15 14 14 14 14 14 14 14 14 14 14 14 14 14 14 14 14 14 13 13 13 13 13 13 13 13 13 13 12 13 13 13 12
Wind_Speed
4 4 3 3 3 4 3 2 2 2 1 1 1 2 2 3 4 5 6 8 10 11 11 11 11 12 12 11 11 11 11 11 11 11 11 11 11 11 11 10 10 10 10
4 4 4 3 3 3 4 3 2 1 0 1 1 2 2 3 4 5 6 7 10 11 11 12 12 12 12 12 12 12 12 12 12 12 12 12 12 12 11 11 11 11 11
6 5 4 3 3 4 4 3 2 1 1 1 1 2 2 3 4 5 6 6 7 9 11 12 13 13 13 13 13 13 14 13 13 13 13 13 13 13 13 13 12 12 12
7 5 4 3 4 4 3 3 2 1 1 1 1 1 2 2 4 5 5 6 7 7 9 12 13 13 14 14 14 14 14 14 14 14 15 14 14 14 14 14 14 13 12
8 6 4 4 4 4 3 3 3 2 2 1 1 2 2 2 3 4 5 6 7 7 8 10 12 13 14 15 15 15 15 15 15 15 16 15 15 15 16 15 15 15 14
8 7 5 5 5 4 3 3 3 2 2 1 1 1 2 2 2 3 4 4 5 7 8 9 9 11 14 15 15 16 15 15 16 16 16 16 15 15 16 16 16 15 15
8 7 4 4 5 4 4 4 3 2 1 1 1 2 2 2 2 2 3 3 4 6 8 9 9 9 9 12 14 14 15 15 15 15 16 16 16 16 16 16 16 16 16
9 8 6 5 5 4 4 4 4 2 2 2 2 1 2 3 2 2 2 3 4 4 6 8 9 9 9 9 10 13 14 15 15 15 15 16 16 17 17 17 17 17 16
8 7 7 6 5 5 5 5 5 5 3 2 2 3 2 2 2 2 2 2 3 3 4 5 7 8 9 9 9 10 13 14 14 14 15 16 16 17 17 17 18 17 16
6 7 6 6 6 5 5 5 5 4 4 3 2 2 2 2 1 2 2 2 3 3 4 4 5 6 8 8 8 10 11 12 12 12 13 14 14 15 16 16 16 16 16
4 6 6 6 6 5 6 5 5 5 4 4 4 3 2 2 2 2 3 3 2 2 3 4 4 5 6 7 7 8 10 10 10 10 11 12 12 13 14 14 14 15 15
3 5 6 6 6 5 6 6 6 6 5 5 4 4 4 3 3 3 4 3 3 2 2 3 3 4 5 6 7 7 8 9 9 9 9 10 10 11 12 12 12 12 12
4 5 5 5 5 6 6 5 6 6 6 6 6 5 5 4 3 3 3 3 3 2 2 2 3 4 4 5 5 6 7 8 8 8 8 7 7 8 8 9 9 9 9
5 5 5 5 6 6 6 5 5 5 5 6 6 5 5 5 4 4 4 3 2 2 2 3 2 3 4 4 5 5 4 6 6 6 6 6 6 6 6 6 6 6 6
5 5 6 6 5 6 6 6 5 5 5 6 6 6 5 4 4 5 4 4 4 3 4 3 2 2 2 3 4 3 4 5 6 6 6 6 6 6 6 6 6 6 6
4 4 5 5 5 5 5 5 5 5 5 5 4 5 5 4 4 4 4 4 4 4 4 3 3 2 1 2 3 4 4 5 6 6 6 6 6 6 5 5 5 5 5
5 5 5 5 5 6 5 6 6 6 6 6 5 6 6 5 5 4 4 4 5 4 5 4 2 2 2 2 2 2 3 3 3 5 6 6 6 6 5 5 5 5 6
5 5 5 5 6 6 6 6 7 6 7 7 7 6 6 5 6 5 5 5 5 5 5 5 3 2 3 2 2 2 2 2 2 4 6 6 6 7 6 6 6 6 6
5 5 5 5 6 6 6 7 7 7 7 7 6 7 7 6 6 5 5 5 5 5 4 4 3 2 2 2 1 1 2 2 2 3 4 5 6 6 7 6 6 6 6
5 5 4 4 5 5 5 6 6 6 6 6 6 6 6 6 7 6 6 6 5 4 4 4 3 3 2 2 2 2 2 2 2 2 3 4 5 6 6 6 6 6 6
5 4 4 3 3 4 4 5 5 5 4 4 4 5 6 6 7 6 6 6 5 4 4 4 4 3 3 2 3 2 3 2 2 2 2 3 3 3 4 5 6 6 6
4 3 4 4 4 4 4 5 4 4 3 4 4 4 5 5 6 6 6 6 7 6 6 5 4 4 5 4 3 3 3 3 3 2 3 3 2 3 3 4 5 6 7
4 3 4 4 5 5 5 4 5 4 3 3 3 3 4 4 4 4 4 5 5 6 7 6 6 6 6 5 5 5 5 4 5 2 3 3 3 4 4 5 7 7 7
3 4 4 4 4 4 4 3 4 3 2 3 4 4 4 3 3 4 4 3 3 4 5 5 6 6 6 5 6 5 5 3 3 2 3 3 3 4 4 4 7 8 8
2 3 3 3 3 3 2 3 2 1 2 3 3 3 3 3 3 4 4 3 3 4 4 4 5 5 5 5 5 3 3 3 3 3 4 3 3 3 3 4 5 8 8
3 2 2 2 2 2 1 2 3 2 2 3 3 3 4 4 4 5 5 4 4 4 3 2 3 3 3 4 5 5 5 4 3 3 4 4 3 2 2 2 3 4 5
Wind_Direction
142 144 138 131 129 133 133 138 131 126 125 162 197 201 231 233 222 217 216 219 218 217 218 217 214 213 213 215 216 215 212 213 214 210 207 209 211 211 210 211 212 212 211
150 142 142 143 152 158 158 158 158 153 171 203 233 231 227 224 224 219 219 223 223 220 221 222 220 220 221 221 222 222 220 220 219 217 215 215 216 217 218 219 217 216 219
166 155 149 160 175 169 163 154 143 139 182 214 243 245 229 227 224 223 222 225 227 225 225 226 225 224 226 227 226 226 225 224 223 222 221 221 221 222 223 222 221 223 226
177 166 164 179 182 168 161 156 155 146 170 199 251 263 247 236 231 231 227 226 227 230 231 232 230 229 230 231 232 231 230 227 227 227 227 226 225 224 225 224 223 224 226
184 177 178 185 174 165 169 179 166 165 180 202 245 267 261 248 244 238 233 231 226 228 231 235 236 235 236 237 237 235 234 232 231 231 231 230 230 227 226 225 226 226 227
187 182 182 183 172 165 175 177 174 170 178 187 258 308 299 277 260 246 244 238 231 233 234 236 239 242 241 242 242 240 237 238 235 235 234 233 232 230 227 228 229 227 227
189 182 180 175 173 178 187 180 170 171 186 150 101 348 331 306 273 256 249 243 241 239 235 235 239 243 247 246 245 243 241 243 239 235 233 232 233 232 230 230 230 228 230
189 189 183 185 180 178 181 182 171 168 187 168 150 110 332 328 317 275 252 242 248 245 241 239 237 240 244 245 246 246 247 246 242 238 235 234 234 234 232 232 232 231 230
192 191 187 186 185 184 192 195 183 176 188 200 179 162 176 244 298 309 271 255 257 251 251 244 240 242 241 240 244 248 249 248 246 242 240 237 236 234 233 234 234 233 231
189 190 187 187 188 191 196 202 193 185 177 198 204 204 198 185 200 301 309 287 272 260 255 251 245 244 239 237 241 246 248 247 247 246 246 242 237 235 234 235 236 235 233
189 190 189 188 192 197 201 205 195 193 191 193 197 189 195 207 205 213 270 290 294 273 257 249 244 240 239 238 242 247 247 246 245 246 249 246 243 240 237 236 239 238 234
195 195 194 194 196 199 204 208 201 199 204 205 207 200 192 190 198 201 234 259 275 281 267 254 245 242 240 241 242 244 243 241 237 238 239 241 244 242 239 238 239 237 236
207 210 201 196 199 204 205 199 200 209 207 207 213 217 216 215 192 189 210 241 257 274 283 269 244 245 243 239 243 237 239 232 228 227 229 231 236 240 240 238 235 233 236
214 209 201 204 205 203 204 197 204 214 211 213 220 216 221 225 210 203 199 204 252 272 263 264 265 243 248 243 243 229 232 222 216 217 220 223 228 229 227 229 229 228 228
210 202 201 207 212 208 204 196 207 216 211 218 222 219 223 227 217 218 212 203 204 247 264 253 253 259 244 242 242 224 223 217 210 211 214 221 228 223 218 216 218 216 217
204 195 202 208 213 212 207 201 208 214 214 224 222 222 230 231 221 218 217 215 210 216 246 250 241 254 254 254 235 225 231 224 218 214 214 216 218 217 213 207 203 206 207
188 194 202 208 214 216 212 209 217 216 221 230 229 225 234 229 223 222 218 213 215 211 235 258 245 248 237 239 240 224 228 219 216 214 214 212 208 207 205 203 204 206 206
195 197 202 204 215 217 210 210 220 221 223 230 231 225 234 229 225 224 217 216 216 213 216 244 251 239 239 232 228 227 236 220 208 211 210 212 208 206 204 206 209 209 206
200 198 200 211 217 217 213 214 215 221 224 227 226 226 230 222 227 224 219 217 216 215 214 224 247 241 242 220 219 228 237 234 221 218 213 216 214 211 208 208 211 211 209
203 207 208 217 221 220 217 217 216 222 228 228 224 226 229 223 226 223 221 218 211 208 206 215 236 246 243 229 204 221 248 243 241 229 220 217 216 213 212 210 209 210 210
211 208 208 220 224 225 226 219 217 224 226 233 236 237 235 229 225 219 219 210 201 204 205 214 229 236 237 225 225 220 233 248 250 231 227 227 216 217 215 216 216 218 215
211 206 214 219 225 236 243 227 210 217 221 231 244 250 248 241 232 218 213 204 197 203 209 211 222 229 236 234 234 224 224 235 253 223 212 239 208 224 221 215 215 210 211
205 211 221 220 230 238 235 224 207 206 216 234 241 245 246 244 224 219 216 213 215 218 210 207 217 229 230 226 218 226 224 232 243 220 200 239 225 235 235 224 210 204 205
208 217 224 225 230 248 229 202 181 199 221 240 244 239 233 235 228 204 205 210 229 237 228 220 225 231 232 223 214 219 225 232 248 228 205 233 233 239 245 231 212 206 208
207 215 216 213 217 241 220 186 158 196 242 259 262 255 237 236 225 192 193 205 230 253 246 227 231 231 226 217 200 188 194 205 247 242 211 222 231 234 241 243 226 212 211
212 209 220 228 226 247 235 184 166 184 238 261 266 258 239 231 227 197 204 208 229 248 248 247 246 250 239 218 197 203 205 212 233 240 207 202 213 206 238 232 227 217 216
Height
1531 1533 1535 1537 1540 1543 1545 1547 1549 1551 1553 1555 1556 1557 1558 1559 1560 1561 1561 1562 1562 1563 1564 1565 1565 1566 1567 1568 1569 1570 1571 1572 1573 1574 1575 1576 1577 1578 1579 1580 1581 1582 1583
1532 1534 1536 1539 1542 1544 1546 1548 1550 1552 1553 1555 1556 1557 1558 1559 1560 1560 1561 1561 1562 1562 1563 1564 1564 1565 1566 1567 1568 1569 1570 1570 1571 1572 1573 1574 1575 1576 1577 1578 1579 1580 1581
1534 1536 1537 1540 1542 1544 1546 1548 1550 1552 1553 1554 1556 1557 1557 1558 1559 1559 1560 1560 1561 1561 1562 1562 1563 1564 1565 1566 1566 1567 1568 1568 1569 1570 1571 1572 1573 1574 1575 1576 1577 1578 1579
1535 1537 1539 1541 1543 1545 1547 1549 1550 1552 1553 1554 1555 1556 1557 1557 1558 1558 1558 1559 1559 1560 1560 1561 1561 1562 1563 1564 1564 1565 1566 1566 1567 1568 1569 1570 1571 1572 1573 1574 1575 1575 1576
1536 1537 1539 1541 1543 1545 1547 1548 1550 1551 1552 1554 1554 1555 1556 1556 1556 1557 1557 1557 1558 1558 1558 1559 1560 1560 1561 1562 1562 1563 1563 1564 1565 1566 1566 1567 1568 1569 1570 1571 1571 1572 1573
1536 1538 1539 1541 1543 1545 1546 1548 1549 1551 1552 1553 1553 1554 1554 1554 1555 1555 1555 1556 1556 1557 1557 1557 1558 1558 1559 1560 1560 1560 1561 1561 1562 1563 1563 1564 1565 1566 1567 1568 1568 1569 1570
1536 1537 1539 1541 1542 1544 1545 1547 1548 1550 1551 1552 1552 1552 1553 1553 1553 1553 1554 1554 1554 1555 1555 1555 1556 1556 1557 1557 1557 1558 1558 1558 1559 1560 1560 1561 1562 1563 1564 1564 1565 1566 1567
1535 1537 1538 1540 1541 1543 1544 1546 1547 1548 1549 1550 1551 1551 1551 1552 1551 1551 1552 1552 1552 1553 1553 1553 1553 1554 1554 1554 1554 1555 1555 1555 1556 1557 1557 1558 1559 1560 1560 1561 1562 1563 1564
1533 1535 1537 1539 1540 1541 1543 1544 1545 1546 1547 1549 1549 1551 1551 1550 1550 1550 1550 1550 1550 1551 1551 1551 1551 1551 1551 1551 1552 1552 1552 1553 1553 1553 1554 1555 1555 1556 1556 1557 1558 1559 1560
1532 1533 1535 1537 1538 1540 1541 1543 1543 1545 1546 1547 1548 1548 1549 1549 1549 1548 1548 1548 1548 1548 1548 1548 1548 1548 1548 1548 1549 1549 1549 1550 1550 1550 1551 1551 1552 1552 1552 1553 1554 1555 1555
1530 1532 1533 1535 1536 1537 1539 1540 1541 1542 1543 1544 1545 1546 1546 1547 1547 1547 1546 1546 1546 1546 1546 1546 1546 1545 1545 1545 1545 1546 1546 1546 1547 1547 1547 1547 1548 1548 1548 1549 1550 1550 1551
1528 1530 1531 1533 1534 1535 1536 1537 1538 1539 1540 1541 1542 1543 1543 1543 1544 1544 1544 1543 1543 1543 1543 1543 1543 1543 1543 1543 1543 1543 1543 1543 1544 1544 1544 1544 1544 1544 1544 1545 1545 1546 1547
1525 1527 1529 1530 1532 1533 1534 1535 1535 1536 1537 1538 1539 1539 1540 1540 1541 1541 1541 1541 1540 1540 1540 1540 1540 1540 1540 1540 1540 1540 1541 1541 1541 1541 1541 1540 1540 1540 1540 1541 1542 1542 1542
1523 1525 1526 1528 1529 1530 1531 1532 1533 1533 1534 1535 1535 1536 1536 1537 1538 1538 1539 1539 1538 1537 1537 1537 1537 1538 1538 1538 1538 1538 1538 1538 1538 1537 1537 1537 1537 1537 1537 1537 1538 1538 1538
1521 1522 1524 1525 1526 1527 1528 1529 1529 1530 1531 1531 1532 1532 1533 1533 1534 1534 1535 1536 1536 1534 1534 1534 1535 1535 1535 1535 1535 1535 1535 1535 1535 1535 1534 1534 1534 1534 1534 1534 1534 1534 1535
1518 1519 1521 1522 1523 1524 1525 1525 1526 1526 1527 1528 1528 1529 1529 1530 1530 1530 1531 1531 1532 1532 1531 1530 1531 1532 1532 1532 1532 1532 1532 1532 1532 1532 1531 1531 1531 1531 1531 1531 1531 1531 1532
1513 1515 1517 1518 1519 1520 1521 1521 1522 1523 1523 1524 1524 1525 1525 1526 1526 1526 1527 1527 1528 1528 1527 1527 1527 1528 1528 1529 1529 1529 1529 1529 1528 1529 1529 1528 1529 1528 1528 1528 1528 1528 1529
1509 1511 1513 1513 1514 1515 1516 1517 1518 1519 1519 1519 1520 1520 1521 1521 1522 1522 1522 1523 1523 1524 1524 1523 1523 1524 1524 1525 1525 1525 1525 1525 1525 1526 1526 1526 1526 1526 1526 1526 1526 1526 1526
1506 1507 1508 1509 1510 1511 1512 1513 1514 1514 1515 1515 1515 1516 1516 1517 1517 1517 1518 1518 1519 1519 1520 1519 1519 1520 1520 1521 1521 1522 1522 1522 1522 1522 1522 1523 1523 1523 1523 1523 1523 1523 1523
1501 1503 1504 1505 1506 1507 1508 1509 1509 1509 1510 1510 1510 1511 1512 1512 1512 1513 1513 1514 1515 1515 1515 1515 1515 1516 1516 1517 1517 1518 1518 1519 1519 1519 1519 1519 1519 1519 1519 1519 1519 1519 1519
1497 1499 1500 1501 1502 1503 1504 1504 1505 1505 1505 1505 1506 1506 1506 1507 1507 1508 1509 1509 1510 1510 1510 1511 1511 1512 1512 1512 1512 1513 1513 1514 1514 1515 1515 1515 1515 1515 1515 1515 1515 1515 1516
1493 1494 1495 1496 1497 1498 1499 1500 1500 1500 1501 1501 1501 1501 1502 1502 1502 1503 1503 1504 1504 1505 1505 1505 1506 1506 1506 1507 1508 1508 1509 1509 1509 1511 1511 1511 1511 1511 1511 1511 1511 1512 1512
1489 1490 1491 1492 1492 1493 1494 1495 1495 1496 1496 1496 1496 1496 1497 1497 1497 1497 1498 1499 1499 1500 1501 1501 1501 1501 1502 1503 1503 1504 1504 1505 1505 1506 1506 1505 1506 1506 1507 1507 1507 1507 1508
1484 1485 1487 1487 1488 1489 1490 1490 1491 1491 1491 1492 1492 1492 1491 1491 1492 1492 1492 1493 1494 1495 1496 1496 1496 1497 1498 1498 1499 1499 1499 1500 1500 1501 1501 1501 1501 1502 1502 1502 1503 1503 1503
1481 1482 1483 1484 1485 1485 1486 1486 1487 1487 1487 1487 1487 1487 1487 1486 1487 1487 1488 1487 1488 1490 1491 1491 1492 1492 1493 1494 1494 1494 1494 1495 1494 1495 1497 1497 1496 1497 1497 1498 1498 1498 1498
1477 1478 1479 1480 1481 1481 1481 1482 1482 1482 1482 1482 1482 1482 1482 1482 1483 1483 1483 1483 1483 1485 1486 1486 1486 1487 1488 1488 1488 1489 1489 1489 1489 1490 1491 1492 1492 1492 1492 1492 1493 1493 1493